Home > Weather > Río Gallegos > Past weeks

Flag for Argentina Past Weather in Río Gallegos, Santa Cruz, Argentina — Yesterday and Last 2 Weeks

Now
39 °F

Sunny.


Feels Like: 30 °F
Forecast: 32 / 42 °F
Wind: 17 mph from West

Location: Rio Gallegos Aerodrome

Current Time: Jul 24, 2016 at 1:44:14 PM

Latest Report: Jul 24, 2016 at 1:00 PM


Visibility: 10 mi

Pressure: 30.12 "Hg

Humidity: 65%

Dew Point: 28 °F

Location of Río GallegosLocation

Past Weather in Río Gallegos — Graph

°F

Río Gallegos Temperature Yesterday

Maximum temperature yesterday: 43 °F (at 3:00 PM)
Minimum temperature yesterday: 32 °F (at 2:00 AM)
Average temperature yesterday: 35 °F

High & Low Weather Summary for the Past Weeks

 TemperatureHumidityPressure
High55 °F (Jul 20, 3:00 PM)100% (Jul 9, 12:00 PM)30.36 "Hg (Jul 9, 12:00 PM)
Low25 °F (Jul 14, 6:00 AM)35% (Jul 20, 5:00 PM)29.15 "Hg (Jul 20, 4:00 PM)
Average37 °F79%29.82 "Hg
* Reported Jul 9 12:00 PM — Jul 24 12:00 PM, Río Gallegos, Weather by CustomWeather, © 2016

Note: Actual official high and low records may vary slightly from our data, if they occured in-between our weather recording intervals... More about our weather records

Advertising

Río Gallegos Weather History for the Previous 24 Hours

Scroll right to see more
 ConditionsComfort  
Time TempWeatherWind HumidityBarometerVisibility
12:00 PM
Sun, Jul 24
37 °FSunny.15 mph70%30.12 "Hg10 mi
11:00 AM34 °FSunny.15 mph81%30.12 "Hg10 mi
10:00 AM30 °FSunny.14 mph93%30.12 "Hg10 mi
9:00 AM30 °FSunny.14 mph93%30.12 "Hg10 mi
8:00 AM30 °FClear.12 mph93%30.09 "Hg10 mi
7:00 AM32 °FClear.13 mph80%30.09 "Hg10 mi
6:00 AM32 °FClear.10 mph87%30.07 "Hg10 mi
5:00 AM32 °FClear.12 mph80%30.07 "Hg10 mi
4:00 AM32 °FClear.7 mph87%30.09 "Hg10 mi
3:00 AM32 °FClear.15 mph87%30.07 "Hg10 mi
2:00 AM34 °FClear.16 mph81%30.07 "Hg10 mi
1:00 AM34 °FClear.16 mph81%30.07 "Hg10 mi
12:00 AM34 °FClear.20 mph81%30.04 "Hg10 mi
11:00 PM
Sat, Jul 23
34 °FClear.18 mph81%30.04 "Hg10 mi
10:00 PM34 °FClear.17 mph81%30.01 "Hg10 mi
9:00 PM34 °FClear.14 mph81%30.01 "Hg10 mi
8:00 PM34 °FClear.13 mph75%30.01 "Hg10 mi
7:00 PM34 °FClear.7 mph81%30.01 "Hg10 mi
6:00 PM37 °FPassing clouds.8 mph65%29.98 "HgN/A
5:00 PM41 °FPassing clouds.10 mph57%29.98 "HgN/A
4:00 PM39 °FPassing clouds.12 mph65%29.95 "HgN/A
3:00 PM43 °FScattered clouds.21 mph57%29.95 "HgN/A
2:00 PM41 °FPassing clouds.18 mph70%29.95 "HgN/A
1:00 PM39 °FSunny.17 mph70%29.95 "Hg10 mi
Weather by CustomWeather, © 2016

See weather overviewHow to use our weather pages